Location: Beuerbach
(48.1459°N, 10.9174°E)
Time: 02:21:28
(UTC+00:00)

Cosmos 1455 - Pass Details

Date: 19 August 2024
Orbit: 431 x 444 km, 82.5° (Epoch: 11 September)

Event Time Altitude Azimuth Distance (km) Brightness Sun altitude
Exits shadow 03:21:58 10° 266° (W) 1,554 4.1 -9.1°
Maximum altitude 03:23:28 13° 293° (WNW) 1,412 4.1 -8.9°
Drops below altitude 10° 03:25:02 10° 320° (NW) 1,563 4.5 -8.6°
Sets 03:28:06 0° 351° (N) 2,434 5.9 -8.2°
